Location: McFarlands Corners
(41.4117°N, 81.3382°W)
Time: 08:40:52
(UTC+00:00)

Explorer 11/Cluster Stage 4 - All Passes

Search period start: 17 February 2026 00:00
Search period end: 27 February 2026 00:00
Orbit: 463 x 1177 km, 28.8° (Epoch: 16 February)

Date Brightness Start Highest point End Pass type
(mag) Time Alt. Az. Time Alt. Az. Time Alt. Az.
17 Feb - 20:22:15 10° SSW 20:23:33 12° S 20:24:50 10° SSE daylight
18 Feb - 19:58:00 10° SSW 19:59:26 12° S 20:00:52 10° SSE daylight
19 Feb - 17:48:26 10° S 17:48:43 10° S 17:49:02 10° SSE daylight
19 Feb - 19:33:39 10° SSW 19:35:19 12° S 19:36:56 10° SSE daylight
20 Feb - 17:23:07 10° S 17:24:33 11° S 17:25:55 10° SSE daylight
20 Feb - 19:09:13 10° SSW 19:11:11 13° S 19:13:03 10° SSE daylight
21 Feb - 16:58:14 10° SSW 17:00:21 13° S 17:02:20 10° SE daylight
21 Feb - 18:44:42 10° SW 18:47:01 14° S 18:49:11 10° SSE daylight
22 Feb - 16:33:25 10° SSW 16:36:07 14° S 16:38:36 10° SE daylight
22 Feb - 18:20:09 10° SW 18:22:49 15° S 18:25:18 10° SSE daylight
23 Feb - 16:08:36 10° SSW 16:11:51 16° S 16:14:47 10° SE daylight
23 Feb - 17:55:32 10° SW 17:58:37 17° S 18:01:24 10° SE daylight
24 Feb - 15:43:47 10° SSW 15:47:32 17° S 15:50:53 10° SE daylight
24 Feb - 17:30:52 10° SW 17:34:22 18° S 17:37:29 10° SE daylight
24 Feb - 19:20:35 10° SSW 19:20:53 10° SSW 19:21:11 10° SSW daylight
25 Feb - 13:34:53 10° S 13:36:11 11° SSE 13:37:26 10° SSE daylight
25 Feb - 15:18:57 10° SW 15:23:11 19° S 15:26:56 10° SE daylight
25 Feb - 17:06:10 10° SW 17:10:05 20° S 17:13:31 10° SE daylight
25 Feb - 18:55:21 10° SW 18:56:38 11° SSW 18:57:52 10° S daylight
26 Feb - 13:09:26 10° S 13:11:43 12° SSE 13:13:55 10° SE daylight
26 Feb - 14:54:07 10° SW 14:58:47 20° S 15:02:55 10° SE daylight
26 Feb - 16:41:25 10° SW 16:45:45 21° S 16:49:32 10° SE daylight
26 Feb - 18:30:27 10° SW 18:32:21 12° SSW 18:34:09 10° S daylight
